logo meteosicilia

Diretta Meteo Reggio Calabria, Italiavenerdì 19 luglio ore 07:20

Mappa
Sereno 28 °C Sereno 24 Ore: T.min 28 T.max 36
Ponente Nord Km/h 24 Punto di rugiada: 24 °C Umidità: 78% Visibilità: 10 Km
Il sole sorge alle: 05:48 Il sole tramonta alle: 20:18
19 Luglio 2024 07:20 tempo osservato: Sereno Sereno 28 78 1015 vento: Nord N 24
19 Luglio 2024 06:50 tempo osservato: Sereno Sereno 28 74 1015 vento: Nord N 24
19 Luglio 2024 06:20 tempo osservato: Sereno Sereno 28 74 1014 vento: Nord N 25.9
19 Luglio 2024 05:50 tempo osservato: Sereno Sereno 28 74 1014 vento: Nord N 24
19 Luglio 2024 05:20 tempo osservato: Sereno Sereno 28 69 1014 vento: Nord N 22.2
19 Luglio 2024 04:50 tempo osservato: Sereno Sereno 28 74 1014 vento: Nord N 24
19 Luglio 2024 04:20 tempo osservato: Sereno Sereno 28 78 1014 vento: Nord N 24
19 Luglio 2024 03:50 tempo osservato: Sereno Sereno 28 74 1014 vento: Nord N 24
19 Luglio 2024 03:20 tempo osservato: Sereno Sereno 28 74 1014 vento: Nord N 18.5
19 Luglio 2024 02:50 tempo osservato: Sereno Sereno 28 74 1015 vento: Nord N 16.7
19 Luglio 2024 02:20 tempo osservato: Sereno Sereno 28 74 1015 vento: Nord N 16.7
19 Luglio 2024 01:50 tempo osservato: Sereno Sereno 28 74 1015 vento: Nord N 24
19 Luglio 2024 01:20 tempo osservato: Sereno Sereno 28 74 1015 vento: Nord N 25.9
19 Luglio 2024 00:50 tempo osservato: Sereno Sereno 28 78 1015 vento: Nord N 24
19 Luglio 2024 00:20 tempo osservato: Poco Nuvoloso Poco Nuvoloso 28 78 1015 vento: Nord N 22.2
18 Luglio 2024 23:50 tempo osservato: Sereno Sereno 29 74 1015 vento: Nord N 25.9
18 Luglio 2024 23:20 tempo osservato: Sereno Sereno 29 70 1015 vento: Nord N 29.6
18 Luglio 2024 22:50 tempo osservato: Sereno Sereno 29 70 1016 vento: Nord N 22.2
18 Luglio 2024 22:20 tempo osservato: Sereno Sereno 29 70 1016 vento: Nord N 22.2
18 Luglio 2024 21:50 tempo osservato: Sereno Sereno 29 66 1016 vento: Nord N 22.2
18 Luglio 2024 21:20 tempo osservato: Sereno Sereno 29 66 1015 vento: Nord N 22.2
18 Luglio 2024 20:50 tempo osservato: Sereno Sereno 29 66 1015 vento: Nord N 25.9
18 Luglio 2024 20:20 tempo osservato: Sereno Sereno 30 58 1015 vento: Nord N 25.9
18 Luglio 2024 19:50 tempo osservato: Sereno Sereno 30 58 1015 vento: Nord N 27.8
18 Luglio 2024 19:20 tempo osservato: Sereno Sereno 31 55 1014 vento: Nord N 29.6
18 Luglio 2024 18:50 tempo osservato: Sereno Sereno 31 55 1014 vento: Nord N 29.6
18 Luglio 2024 18:20 tempo osservato: Sereno Sereno 32 52 1014 vento: Nord N 31.5
18 Luglio 2024 17:50 tempo osservato: Sereno Sereno 33 46 1014 vento: Nord N 31.5
18 Luglio 2024 17:20 tempo osservato: Sereno Sereno 33 49 1014 vento: Nord N 31.5
18 Luglio 2024 16:50 tempo osservato: Sereno Sereno 33 49 1014 vento: Nord N 31.5
18 Luglio 2024 16:20 tempo osservato: Sereno Sereno 33 49 1014 vento: Nord N 31.5
18 Luglio 2024 15:50 tempo osservato: Sereno Sereno 33 46 1015 vento: Nord N 33.3
18 Luglio 2024 15:20 tempo osservato: Sereno Sereno 34 46 1015 vento: Nord N 29.6
18 Luglio 2024 14:50 tempo osservato: Sereno Sereno 34 36 1015 vento: Nord N 31.5
18 Luglio 2024 14:20 tempo osservato: Sereno Sereno 35 32 1015 vento: Nord N 29.6
18 Luglio 2024 13:50 tempo osservato: Sereno Sereno 36 32 1015 vento: Nord N 27.8
18 Luglio 2024 13:20 tempo osservato: Sereno Sereno 35 34 1015 vento: Nord N 29.6
18 Luglio 2024 12:50 tempo osservato: Sereno Sereno 35 34 1015 vento: Nord N 25.9
18 Luglio 2024 12:20 tempo osservato: Sereno Sereno 34 38 1015 vento: Nord N 25.9
18 Luglio 2024 11:50 tempo osservato: Sereno Sereno 32 49 1015 vento: Nord N 29.6
18 Luglio 2024 11:20 tempo osservato: Sereno Sereno 32 49 1015 vento: Nord N 29.6
18 Luglio 2024 10:50 tempo osservato: Sereno Sereno 32 55 1015 vento: Nord N 27.8
18 Luglio 2024 10:20 tempo osservato: Sereno Sereno 30 66 1015 vento: Nord N 29.6
18 Luglio 2024 09:50 tempo osservato: Sereno Sereno 30 70 1015 vento: Nord N 27.8
18 Luglio 2024 09:20 tempo osservato: Sereno Sereno 30 66 1015 vento: Nord N 27.8
18 Luglio 2024 08:50 tempo osservato: Sereno Sereno 29 70 1015 vento: Nord N 27.8
18 Luglio 2024 08:20 tempo osservato: Sereno Sereno 29 70 1015 vento: Nord N 27.8
18 Luglio 2024 07:50 tempo osservato: Sereno Sereno 29 70 1015 vento: Nord N 27.8